sat.trackr.live / text

‹ back to catalog

STARLINK-36459

NORAD 67427 · 2026-005Z

PAYLOAD ACTIVE UNKNOWN

§ Identity

Operator
Country
US
Launch date
2026-01-12
Launch site
AFETR
Launch vehicle
Mass (kg)
RCS (m²)

Purposes: comms

External: N2YO · Heavens-Above · Gunter

§ Orbital elements

Epoch: 2026-05-25T03:06:33.691104Z

Period
94.27 min
Inclination
43.0008°
Eccentricity
0.0001839
Mean motion
15.27565796 rev/d
Perigee alt
481.8 km
Apogee alt
484.4 km
Semi-major
6,861.2 km
B*
1.1926e-3
RAAN
166.5771°
Arg perigee
265.2878°
Mean anomaly
94.7764°
Rev number
2,037

§ Raw data

STARLINK-364591 67427U 26005Z   26145.12955661  .00032687  00000+0  11926-2 0  99982 67427  43.0008 166.5771 0001839 265.2878  94.7764 15.27565796 20377

JSON: /api/v1/satellites/67427 · /tle

For live sub-satellite position, see the globe view (requires WebGL).

§ Visibility from observer

Set your observer location to see the next 7 days of passes ≥ 10°. The values pass through the URL so the page stays shareable.

No JS? Fill the form by hand. The geolocation button needs JavaScript.